This demonstration page uses our WeatherBlox Daily Observations layout. Learn more.

36.17497, -115.13722

Hourly Observations for February 2, 2018

Temp ( °F °C ) Dew Point ( °F °C ) Humidity (%) Winds ( mph kmh ) Pressure ( in mb ) Visibility ( mi km ) Precip ( " mm )
12:53 am 00:53 Clear 49 9.4 29 -1.7 46 46 WNW 3 6 30.2 1023 10 16.0934 0 0
1:53 am 01:53 Clear 50 10 27 -2.8 41 41 NW 5 7 30.21 1023 10 16.0934 0 0
2:53 am 02:53 Clear 51 10.6 24 -4.4 35 35 NNW 3 6 30.2 1023 10 16.0934 0 0
3:53 am 03:53 Clear 46 7.8 27 -2.8 47 47 NW 5 7 30.21 1023 10 16.0934 0 0
4:53 am 04:53 Clear 47 8.3 29 -1.7 50 50 WNW 6 9 30.22 1024 10 16.0934 0 0
5:53 am 05:53 Clear 45 7.2 28 -2.2 52 52 NW 6 9 30.24 1024 10 16.0934 0 0
6:53 am 06:53 Sunny 46 7.8 28 -2.2 50 50 W 6 9 30.26 1025 10 16.0934 0 0
7:53 am 07:53 Sunny 53 11.7 25 -3.9 34 34 WNW 6 9 30.27 1025 10 16.0934 0 0
8:53 am 08:53 Sunny 61 16.1 24 -4.4 24 24 NNE 5 7 30.28 1025 10 16.0934 0 0
9:53 am 09:53 Sunny 64 17.8 24 -4.4 22 22 NNW 10 17 30.28 1026 10 16.0934 0 0
10:53 am 10:53 Sunny 65 18.3 26 -3.3 23 23 ESE 6 9 30.27 1025 10 16.0934 0 0
11:53 am 11:53 Sunny 67 19.4 25 -3.9 20 20 Calm 30.23 1024 10 16.0934 0 0
12:53 pm 12:53 Sunny 69 20.6 26 -3.3 20 20 Calm 30.2 1023 10 16.0934 0 0
1:53 pm 13:53 Sunny 71 21.7 26 -3.3 19 19 Calm 30.17 1022 10 16.0934 0 0
2:53 pm 14:53 Sunny 72 22.2 26 -3.3 18 18 S 5 7 30.15 1021 10 16.0934 0 0
3:53 pm 15:53 Sunny 72 22.2 26 -3.3 18 18 ESE 3 6 30.15 1021 10 16.0934 0 0
4:53 pm 16:53 Sunny 70 21.1 27 -2.8 20 20 S 5 7 30.14 1021 10 16.0934 0 0
5:53 pm 17:53 Clear 69 20.6 28 -2.2 22 22 SW 5 7 30.15 1021 10 16.0934 0 0
6:53 pm 18:53 Clear 63 17.2 29 -1.7 28 28 NNW 3 6 30.15 1021 10 16.0934 0 0
7:53 pm 19:53 Clear 60 15.6 30 -1.1 32 32 NNW 6 9 30.16 1022 10 16.0934 0 0
8:53 pm 20:53 Clear 58 14.4 30 -1.1 35 35 WNW 6 9 30.16 1021 10 16.0934 0 0
9:53 pm 21:53 Clear 59 15 29 -1.7 32 32 NNW 6 9 30.16 1022 10 16.0934 0 0
10:53 pm 22:53 Clear 57 13.9 29 -1.7 34 34 NNW 5 7 30.15 1021 10 16.0934 0 0
11:53 pm 23:53 Clear 56 13.3 30 -1.1 37 37 NW 8 13 30.15 1021 10 16.0934 0 0

Powered by AerisWeather